Weather reports worldwide

Advertisment
Parkalompolo, Sweden (2072): temperature & dewpoint: 09.12.2019 00:00:00 - 15.12.2019 00:00:00 (CET)Parkalompolo, Sweden (2072): wind speed & gusts: 09.12.2019 00:00:00 - 15.12.2019 00:00:00 (CET)Parkalompolo, Sweden (2072): wind direction: 09.12.2019 00:00:00 - 15.12.2019 00:00:00 (CET)Parkalompolo, Sweden (2072): reduced air pressure: 09.12.2019 00:00:00 - 15.12.2019 00:00:00 (CET)Parkalompolo, Sweden (2072): visibility: 09.12.2019 00:00:00 - 15.12.2019 00:00:00 (CET)Parkalompolo, Sweden (2072): precipitation: 09.12.2019 00:00:00 - 15.12.2019 00:00:00 (CET)
Date & Time tt [°C] td [°C] ff [km/h] ff [kn] fx [km/h] fx [kn] dd ppp [hPa] vv [km] rr [mm]
15.12.2019 00:00:00 - - - - - - - - - -
14.12.2019 23:00:00 -1,2 -2,9 9 5 16 9 ESE 1001,4 18 0,1
14.12.2019 22:00:00 -1,2 -2,5 7 4 16 8 ESE 1001,7 0,9 0,0
14.12.2019 21:00:00 -1,3 -2,6 7 4 16 9 ESE 1001,8 1,2 0,0
14.12.2019 20:00:00 -1,4 -3,0 6 3 17 9 ESE 1001,9 2,1 0,1
14.12.2019 19:00:00 -1,4 -2,7 9 5 17 9 SE 1001,9 2,0 0,0
14.12.2019 18:00:00 -1,3 -2,6 9 5 18 10 SE 1002,0 1,6 0,0
14.12.2019 17:00:00 -1,3 -2,6 9 5 18 10 SE 1002,1 3,1 -
14.12.2019 16:00:00 -1,1 -2,4 6 4 17 9 SE 1002,0 0,8 0,0
14.12.2019 15:00:00 -0,9 -2,2 8 4 19 10 SE 1001,7 0,9 0,0
14.12.2019 14:00:00 -0,8 -2,1 9 5 22 12 SSE 1001,5 8 -
14.12.2019 13:00:00 -0,8 -1,9 9 5 23 12 SSE 1001,3 2,5 0,0
14.12.2019 12:00:00 -1,1 -2,2 9 5 20 11 SSE 1001,3 1,8 0,0
14.12.2019 11:00:00 -2,2 -3,6 5 3 14 8 SSE 1001,4 - 0,0
14.12.2019 10:00:00 -2,5 -4,2 7 4 15 8 SSE 1001,3 7 0,0
14.12.2019 09:00:00 -3,0 -5,2 7 4 16 9 SSE 1000,9 50 0,0
14.12.2019 08:00:00 -2,5 -4,8 9 5 22 12 S 1000,6 42 0,0
14.12.2019 07:00:00 -2,1 -4,4 11 6 25 14 S 1000,1 50 0,0
14.12.2019 06:00:00 -2,0 -4,0 8 4 24 13 S 999,7 4,4 0,0
14.12.2019 05:00:00 -1,7 -3,9 9 5 22 12 S 999,3 50 0,0
14.12.2019 04:00:00 -1,5 -3,4 10 6 22 12 S 998,9 33 0,0
14.12.2019 03:00:00 -1,5 -3,4 11 6 23 13 S 998,6 50 0,0
14.12.2019 02:00:00 -1,3 -3,0 12 7 24 13 S 998,3 38 0,0
14.12.2019 01:00:00 -1,4 -3,1 10 5 22 12 S 998,1 50 0,0
14.12.2019 00:00:00 -1,4 -3,1 11 6 27 14 S 997,8 50 0,0
13.12.2019 23:00:00 -1,4 -2,7 11 6 23 12 S 997,3 50 0,0
13.12.2019 22:00:00 -1,7 -2,8 12 6 23 12 S 996,9 2,9 0,0
13.12.2019 21:00:00 -2,0 -3,3 11 6 23 12 S 996,7 21 0,0
13.12.2019 20:00:00 -2,1 -4,0 10 5 24 13 S 996,4 50 0,0
13.12.2019 19:00:00 -2,0 -3,7 13 7 34 19 S 995,8 50 0,0
13.12.2019 18:00:00 -1,8 -3,7 9 5 21 12 S 995,5 50 0,0
13.12.2019 17:00:00 -1,8 -3,4 10 5 23 12 S 995,0 50 0,0
13.12.2019 16:00:00 -1,7 -3,3 12 7 28 15 S 994,4 50 0,0
13.12.2019 15:00:00 -1,4 -2,8 14 7 26 14 S 993,8 50 0,0
13.12.2019 14:00:00 -1,3 -2,6 13 7 27 15 S 993,3 50 0,0
13.12.2019 13:00:00 -1,3 -2,4 10 5 28 15 S 993,1 2,5 0,0
13.12.2019 12:00:00 -1,2 -2,3 12 7 27 15 S 992,6 7 0,0
13.12.2019 11:00:00 -1,1 -2,2 13 7 25 13 S 992,2 45 0,0
13.12.2019 10:00:00 -1,0 -2,0 12 7 27 15 S 992,0 13 0,0
13.12.2019 09:00:00 -0,9 -2,0 12 6 24 13 S 991,5 4,9 0,1
13.12.2019 08:00:00 -0,8 -1,9 12 6 25 14 S 990,9 9 0,0
13.12.2019 07:00:00 -0,8 -1,9 10 5 23 13 S 990,7 8 0,1
13.12.2019 06:00:00 -0,6 -1,9 9 5 23 12 S 990,5 8 0,0
13.12.2019 05:00:00 -0,3 -1,4 11 6 29 15 S 990,7 11 0,0
13.12.2019 04:00:00 -0,3 -1,3 14 8 30 16 S 990,6 9 0,0
13.12.2019 03:00:00 -0,2 -1,3 14 8 25 14 S 990,7 50 0,0
13.12.2019 02:00:00 -0,3 -1,3 12 6 27 15 S 991,0 39 0,0
13.12.2019 01:00:00 -0,2 -1,0 13 7 32 17 S 991,6 11 0,0
13.12.2019 00:00:00 -0,4 -1,4 11 6 26 14 S 991,6 2,7 0,1
12.12.2019 23:00:00 -0,4 -2,0 11 6 22 12 S 991,8 14 -
12.12.2019 22:00:00 -0,5 -2,4 10 6 26 14 S 992,2 26 0,0
12.12.2019 21:00:00 -0,6 -2,5 11 6 27 15 S 992,5 43 0,0
12.12.2019 20:00:00 -0,6 -2,2 13 7 26 14 S 992,5 33 0,0
12.12.2019 19:00:00 -0,8 -2,4 12 6 26 14 S 992,5 34 0,0
12.12.2019 18:00:00 -1,0 -2,4 13 7 26 14 S 992,9 27 0,0
12.12.2019 17:00:00 -0,9 -2,3 11 6 23 12 S 993,2 12 0,0
12.12.2019 16:00:00 -1,0 -2,6 14 7 25 14 S 993,3 15 0,0
12.12.2019 15:00:00 -1,2 -2,6 11 6 23 12 S 993,4 11 0,0
12.12.2019 14:00:00 -1,4 -2,7 9 5 22 12 SSE 993,7 9 0,1
12.12.2019 13:00:00 -1,7 -3,1 9 5 20 11 S 993,9 7 -
12.12.2019 12:00:00 -2,0 -3,6 10 6 19 10 SSE 993,9 23 0,0
12.12.2019 11:00:00 -2,2 -3,9 10 6 23 12 S 994,0 40 -
12.12.2019 10:00:00 -2,4 -4,3 13 7 25 14 S 994,3 16 -
12.12.2019 09:00:00 -2,8 -4,5 8 5 21 11 S 994,0 11 -
12.12.2019 08:00:00 -2,9 -4,3 11 6 29 15 S 994,3 4,7 0,1
12.12.2019 07:00:00 -3,0 -4,6 13 7 30 16 S 993,7 2,8 0,0
12.12.2019 06:00:00 -2,9 -4,5 10 5 30 16 S 993,5 40 0,0
12.12.2019 05:00:00 -3,1 -4,4 12 7 26 14 S 993,6 5 0,0
12.12.2019 04:00:00 -3,3 -4,6 11 6 22 12 S 993,5 2,3 0,1
12.12.2019 03:00:00 -3,4 -4,7 11 6 27 14 S 993,1 2,1 0,0
12.12.2019 02:00:00 -3,5 -4,9 9 5 18 10 S 992,8 50 0,0
12.12.2019 01:00:00 -4,0 -5,5 6 3 18 10 S 992,4 47 0,0
12.12.2019 00:00:00 -3,9 -5,4 7 4 16 9 S 991,7 50 0,0
11.12.2019 23:00:00 -4,2 -5,7 5 3 10 6 S 991,0 50 0,0
11.12.2019 22:00:00 -4,0 -5,4 5 3 14 7 SSW 990,2 50 0,0
11.12.2019 21:00:00 -3,2 -4,6 5 3 15 8 S 989,2 50 0,0
11.12.2019 20:00:00 -2,2 -3,5 8 4 20 11 S 987,7 50 0,0
11.12.2019 19:00:00 -1,5 -2,6 10 5 26 14 S 986,0 50 0,0
11.12.2019 18:00:00 -1,7 -2,8 9 5 24 13 S 985,3 2,0 0,6
11.12.2019 17:00:00 -2,9 -4,0 11 6 29 16 SSE 985,0 1,4 0,7
11.12.2019 16:00:00 -3,5 -4,9 13 7 30 16 SSE 985,0 1,3 0,3
11.12.2019 15:00:00 -3,9 -5,6 16 9 36 19 SSE 985,6 1,5 0,2
11.12.2019 14:00:00 -4,2 -6,0 18 10 37 20 SE 986,4 1,3 0,3
11.12.2019 13:00:00 -4,6 -6,6 19 10 42 23 SSE 987,2 8 0,2
11.12.2019 12:00:00 -5,4 -7,4 18 10 44 24 SSE 988,5 6 0,3
11.12.2019 11:00:00 -6,0 -7,2 19 11 42 23 SE 989,7 1,7 0,4
11.12.2019 10:00:00 -6,2 -7,4 22 12 43 23 SE 991,0 1,2 0,4
11.12.2019 09:00:00 -6,9 -8,1 17 9 36 20 SE 992,6 1,4 0,3
11.12.2019 08:00:00 -8,4 -9,6 14 7 32 17 SE 994,4 1,2 0,2
11.12.2019 07:00:00 -9,3 -10,6 11 6 23 13 SE 995,8 2,6 0,2
11.12.2019 06:00:00 -9,3 -10,5 10 5 18 10 SE 997,6 3,5 0,0
11.12.2019 05:00:00 -11,2 -12,7 5 3 12 6 SE 999,3 6 0,0
11.12.2019 04:00:00 -12,9 -14,3 4 2 10 5 SE 1001,2 10 0,0
11.12.2019 03:00:00 -14,5 -16,0 4 2 9 5 SE 1002,7 8 0,0
11.12.2019 02:00:00 -22,6 -25,1 0 0 3 2 N 1004,7 50 0,0
11.12.2019 01:00:00 -16,2 -18,0 0 0 2 1 N 1005,1 48 0,0
11.12.2019 00:00:00 -21,4 -24,2 0 0 2 1 N 1006,0 43 0,0
10.12.2019 23:00:00 -22,4 -24,6 0 0 2 1 N 1006,9 50 0,0
10.12.2019 22:00:00 -23,0 -25,8 0 0 2 1 N 1007,4 50 0,0
10.12.2019 21:00:00 -19,4 -21,7 0 0 3 2 N 1006,9 50 0,0
10.12.2019 20:00:00 -19,4 -21,4 2 1 3 2 S 1007,2 50 0,0
10.12.2019 19:00:00 -21,7 -24,5 0 0 2 1 N 1007,2 45 0,0
10.12.2019 18:00:00 -18,7 -21,0 0 0 4 2 N 1007,2 50 0,0
10.12.2019 17:00:00 -18,2 -19,8 0 0 3 2 N 1006,9 50 0,0
10.12.2019 16:00:00 -20,5 -22,9 0 0 4 2 N 1007,1 8 0,0
10.12.2019 15:00:00 -18,7 -20,7 3 1 5 3 S 1006,4 50 0,0
10.12.2019 14:00:00 -20,3 -22,0 0 0 6 3 N 1006,1 50 0,0
10.12.2019 13:00:00 -19,2 -21,4 0 0 4 2 N 1005,7 50 0,0
10.12.2019 12:00:00 -20,3 -22,6 0 0 6 3 N 1005,2 39 0,0
10.12.2019 11:00:00 -19,4 -22,1 0 0 5 3 N 1004,5 50 0,0
10.12.2019 10:00:00 -14,5 -16,2 4 2 11 6 WSW 1003,4 33 0,0
10.12.2019 09:00:00 -19,7 -23,6 2 1 10 6 SE 1002,8 50 0,0
10.12.2019 08:00:00 -12,5 -14,8 4 2 15 8 WNW 1001,0 50 0,0
10.12.2019 07:00:00 -17,3 -19,6 2 1 6 3 W 1000,4 50 0,0
10.12.2019 06:00:00 -14,2 -15,1 3 2 6 3 WNW 999,1 50 0,0
10.12.2019 05:00:00 -16,6 -19,4 0 0 9 5 N 998,6 50 0,0
10.12.2019 04:00:00 -14,9 -17,3 2 1 5 3 WSW 997,5 50 0,0
10.12.2019 03:00:00 -13,8 -16,2 3 2 7 4 WNW 996,2 50 0,0
10.12.2019 02:00:00 -12,8 -16,0 4 2 10 6 W 994,9 50 0,0
10.12.2019 01:00:00 -11,7 -14,5 4 2 10 5 NW 993,2 50 0,0
10.12.2019 00:00:00 -16,4 -18,5 0 0 8 5 N 992,5 50 0,0
09.12.2019 23:00:00 -14,7 -16,5 3 2 8 5 W 991,1 26 0,1
09.12.2019 22:00:00 -17,7 -21,4 3 1 13 7 W 990,3 50 0,0
09.12.2019 21:00:00 -17,9 -20,8 3 2 10 5 W 989,1 50 0,0
09.12.2019 20:00:00 -16,7 -18,1 4 2 8 4 W 987,9 50 0,0
09.12.2019 19:00:00 -19,8 -22,5 0 0 6 3 N 987,2 50 0,0
09.12.2019 18:00:00 -15,7 -18,5 0 0 7 4 N 985,8 50 0,0
09.12.2019 17:00:00 -11,9 -14,8 3 2 8 4 W 984,7 50 0,0
09.12.2019 16:00:00 -10,0 -12,8 4 2 10 5 N 983,4 50 0,0
09.12.2019 15:00:00 -10,2 -12,8 5 3 11 6 N 982,9 50 0,0
09.12.2019 14:00:00 -10,4 -12,9 6 3 13 7 NNW 981,9 45 -
09.12.2019 13:00:00 -11,2 -13,5 5 3 8 5 NNW 981,2 50 0,0
09.12.2019 12:00:00 -11,8 -14,2 4 2 11 6 NNW 980,5 50 0,0
09.12.2019 11:00:00 -10,7 -13,0 7 4 12 7 N 979,7 50 0,0
09.12.2019 10:00:00 -10,6 -12,9 5 3 11 6 N 979,4 50 0,0
09.12.2019 09:00:00 -10,2 -12,4 4 2 10 5 N 978,9 50 0,0
09.12.2019 08:00:00 -9,5 -12,0 5 3 11 6 N 978,4 50 0,0
09.12.2019 07:00:00 -9,4 -11,6 4 2 9 5 N 978,2 50 0,0
09.12.2019 06:00:00 -9,5 -11,7 4 2 8 4 N 978,0 50 0,0
09.12.2019 05:00:00 -9,7 -11,9 3 2 7 4 N 977,9 50 0,0
09.12.2019 04:00:00 -9,4 -11,6 3 2 9 5 N 977,8 50 0,0
09.12.2019 03:00:00 -9,1 -11,3 6 3 12 6 N 977,8 50 0,0
09.12.2019 02:00:00 -8,2 -10,4 5 3 9 5 NNE 977,7 50 -
09.12.2019 01:00:00 -7,9 -9,8 4 2 9 5 N 978,1 15 0,0
09.12.2019 00:00:00 -8,0 -9,8 4 2 8 5 N 978,6 7 0,1

tt = temperature
td = dewpoint
ff = wind speed
fx = gusts
dd = wind direction
ppp = reduced air pressure
vv = visibility
rr = precipitation

Next stations